Jaipur, India

8:59 PM IST on July 26, 2017 (GMT +0530)
Jaipur

Weather History for VIJP - August, 2013

Change the Weather History Date:

Thursday, August 29, 2013

  Actual Average Record
Temperature  
Mean Temperature 86 °F -  
Max Temperature 96 °F - - ()
Min Temperature 75 °F - - ()
Cooling Degree Days 20    
Growing Degree Days 36 (Base 50)    
Moisture  
Dew Point 72 °F    
Average Humidity 69    
Maximum Humidity 89    
Minimum Humidity 49    
Precipitation  
Precipitation 0.00 in - - ()
Sea Level Pressure  
Sea Level Pressure 29.74 in    
Wind  
Wind Speed 4 mph ()    
Max Wind Speed 10 mph    
Max Gust Speed -    
Visibility 2.4 miles    
Events      
T = Trace of Precipitation, MM = Missing Value Source: Averaged Metar Reports

Daily Weather History Graph

Daily Weather History Graph

Search for Another Location

Airport or City:

Trip Planner

Search our weather history database for the weather conditions in past years. The results will help you decide how hot, cold, wet, or windy it might be!

Date:

Astronomy

Aug. 29, 2013 Rise Set
Actual Time 6:04 AM IST 6:50 PM IST
Civil Twilight 5:41 AM IST 7:13 PM IST
Nautical Twilight 5:13 AM IST 7:41 PM IST
Astronomical Twilight 4:44 AM IST 8:10 PM IST
Moon No Moon Rise 1:39 PM IST (8/29)
Length of Visible Light 13h 32m
Length of Day
12h 45m
Last Quarter, 42% of the Moon is Illuminated
Aug 29
Last Quarter
Sep 5
New
Sep 12
First Quarter
Sep 19
Full
Sep 27
Last Quarter

Hourly Weather History & Observations

Time (IST) Temp. Heat Index Dew Point Humidity Pressure Visibility Wind Dir Wind Speed Gust Speed Precip Events Conditions
12:00 AM 78.8 °F - 71.6 °F 78% 29.77 in 2.2 mi Calm Calm - N/A   Haze
1:00 AM 78.8 °F - 71.6 °F 78% 29.77 in 2.2 mi Calm Calm - N/A   Haze
2:00 AM 78.8 °F - 71.6 °F 78% 29.74 in 2.2 mi Calm Calm - N/A   Haze
3:00 AM 77.0 °F - 71.6 °F 83% 29.74 in 2.2 mi Variable 1.2 mph - N/A   Haze
4:00 AM 77.0 °F - 69.8 °F 78% 29.71 in 2.2 mi NW 4.6 mph - N/A   Haze
5:00 AM 77.0 °F - 69.8 °F 78% 29.71 in 2.2 mi WNW 4.6 mph - N/A   Haze
5:30 AM 76 °F - 71 °F 78% 29.66 in 2 mi WNW 4.6 mph - -   Haze
5:30 AM 75.2 °F - 69.8 °F 83% 29.74 in 2.2 mi WNW 4.6 mph - N/A   Haze
6:00 AM 75.2 °F - 71.6 °F 89% 29.74 in 2.2 mi WNW 4.6 mph - N/A   Haze
7:00 AM 77.0 °F - 71.6 °F 83% 29.77 in 2.2 mi WNW 4.6 mph - N/A   Scattered Clouds
8:00 AM 78.8 °F - 71.6 °F 78% 29.80 in 2.2 mi NW 4.6 mph - N/A   Scattered Clouds
9:00 AM 82.4 °F 88.2 °F 73.4 °F 74% 29.80 in 2.5 mi WNW 6.9 mph - N/A   Haze
10:00 AM 84.2 °F 90.9 °F 73.4 °F 70% 29.80 in 2.5 mi WNW 10.4 mph - N/A   Haze
11:00 AM 86.0 °F 93.4 °F 73.4 °F 66% 29.80 in 2.5 mi Variable 8.1 mph - N/A   Haze
11:30 AM 88 °F - 74 °F 55% 29.70 in 2 mi WNW 5.8 mph - -   Haze
1:00 PM 89.6 °F 98.2 °F 73.4 °F 59% 29.77 in 3.1 mi Variable 5.8 mph - N/A   Haze
2:00 PM 89.6 °F 98.2 °F 73.4 °F 59% 29.74 in 3.1 mi Variable 4.6 mph - N/A   Haze
2:30 PM 91 °F - 74 °F 49% 29.65 in 2 mi WNW 4.6 mph - -   Haze
3:00 PM 91.4 °F 100.1 °F 73.4 °F 55% 29.74 in 3.1 mi Variable 4.6 mph - N/A   Haze
4:00 PM 89.6 °F 98.2 °F 73.4 °F 59% 29.71 in 3.1 mi West 10.4 mph - N/A   Haze
5:30 PM 92 °F - 75 °F 49% 29.62 in 2 mi West 9.2 mph - -   Haze
6:00 PM 89.6 °F 96.2 °F 71.6 °F 55% 29.71 in 3.1 mi West 9.2 mph - N/A   Haze
7:00 PM 86.0 °F 93.4 °F 73.4 °F 66% 29.71 in 2.5 mi West 4.6 mph - N/A   Haze
8:00 PM 84.2 °F 90.9 °F 73.4 °F 70% 29.74 in 2.5 mi Calm Calm - N/A   Haze
8:30 PM 84.2 °F 90.9 °F 73.4 °F 70% 29.74 in 2.5 mi Variable 2.3 mph - N/A   Haze
9:00 PM 84.2 °F 90.9 °F 73.4 °F 70% 29.77 in 2.5 mi WNW 6.9 mph - N/A   Haze
10:00 PM 84.2 °F 89.6 °F 71.6 °F 66% 29.77 in 2.5 mi WNW 10.4 mph - N/A   Haze
11:00 PM 82.4 °F 87.2 °F 71.6 °F 70% 29.77 in 2.5 mi WNW 8.1 mph - N/A   Haze